Location: Auckland
(36.8670°S, 174.7670°E)
Time: 08:46:14
(UTC+12:00)

A-11 Canister half - Pass Details

Date: 24 July 2019
Orbit: 1526 x 1683 km, 47.3° (Epoch: 18 August)

Event Time Altitude Azimuth Distance (km) Brightness Sun altitude
Rises 06:15:24 0° 339° (NNW) 4,662 11.5 -14.2°
Reaches altitude 10° 06:18:45 10° 348° (NNW) 3,686 11.0 -13.5°
Maximum altitude 06:26:54 36° 50° (NE) 2,276 10.6 -12.0°
Drops below altitude 10° 06:35:11 10° 111° (ESE) 3,766 11.9 -10.4°
Sets 06:38:37 0° 119° (ESE) 4,775 12.3 -9.7°
